GFSWCAN_850_dewp_057.txt.gz
Dewpoint
5 5 3 4 3 1 1 -1 -7 -4 -1 -1 -3 -4 -3 -2 -3 -3 -2 -2 -2 -3 -3 -6 -7 -6 -6 -5 -0 0 2 3 3 2 2 2 1 1 1 0 2 2 2 3 3 4 3 -0 2 4 2 2 2 2
5 3 3 4 2 1 1 -2 -6 -3 -3 -3 -3 -4 -4 -2 -3 -2 -2 -2 -1 -2 -3 -4 -5 -5 -5 -7 -5 -5 0 1 3 4 2 1 1 -1 0 2 -2 1 -0 1 1 2 -2 1 2 2 2 2 2 1
2 3 4 3 3 2 1 -2 -4 -3 -3 -2 -2 -3 -4 -2 -3 -2 -1 -2 -1 -2 -3 -5 -6 -6 -5 -5 -6 -4 -4 1 -0 0 1 4 3 -0 1 1 0 -1 -2 -0 -1 -2 -2 -2 1 3 2 2 1 1
1 4 3 3 3 2 0 -2 -3 -2 -2 -2 -2 -3 -3 -3 -3 -2 -3 -2 -2 -2 -3 -7 -5 -5 -6 -6 -7 -7 -5 -2 -4 -4 0 3 4 0 1 -0 0 -1 -1 -0 -0 -1 -1 -0 -0 3 3 3 2 2
-0 2 2 2 2 2 0 -1 -2 -2 -2 -2 -2 -3 -3 -3 -3 -3 -6 -4 -4 -2 -3 -4 -6 -4 -5 -5 -5 -7 -4 -4 -4 -4 -1 3 2 2 1 1 1 -0 0 1 1 -1 -1 -1 -1 2 3 3 2 2
-2 1 2 0 2 2 1 -0 -1 -2 -2 -2 -2 -3 -3 -2 -3 -4 -4 -4 -5 -4 -4 -4 -5 -6 -4 -3 -4 -4 -4 -4 -4 -3 -2 -1 0 3 4 3 -0 -1 -1 -1 -1 0 1 1 2 2 2 2 2 1
-7 -6 -1 1 2 1 0 -1 -1 -2 -1 -2 -2 -3 -3 -3 -3 -5 -3 -3 -3 -3 -3 -3 -3 -4 -2 -4 -4 -2 -2 -3 -3 -4 -2 -1 -1 0 2 4 -1 -1 -1 -1 -0 0 2 2 2 2 1 1 1 1
-7 -4 -1 1 -0 -1 -1 -0 -1 -1 -2 -2 -2 -4 -4 -4 -4 -3 -3 -3 -5 -3 -3 -4 -4 -3 -1 -2 -3 -4 -3 -3 -3 -4 -3 -1 -2 -1 1 1 1 -1 -1 0 1 1 1 1 1 2 1 1 0 -0
-6 -2 -3 -2 -2 -1 -1 -1 -1 -0 -2 -2 -4 -5 -4 -3 -3 -3 -4 -3 -3 -3 -3 -2 -3 -2 -0 0 -1 -4 -4 -1 -4 -2 -1 1 3 3 1 2 2 1 1 1 1 1 1 1 1 1 0 0 0 0
-8 -6 -3 -2 -1 -1 -1 -0 0 -1 -2 -3 -4 -4 -4 -3 -3 -4 -2 -3 -3 -3 -3 -3 -4 -2 -1 1 0 -0 -0 1 2 1 1 1 0 -0 1 2 2 1 1 1 1 1 0 0 0 0 -0 -0 0 1
-10 -5 -4 -2 -2 -2 -1 -0 -1 -0 -2 -4 -6 -5 -4 -4 -6 -3 -2 -2 -2 -2 -3 -3 -3 -1 -0 1 2 0 2 2 3 3 3 3 3 1 0 1 0 1 1 1 1 0 0 0 -0 -0 1 1 1 1
-8 -3 -2 -1 -1 -1 -1 -1 -0 -1 -2 -3 -4 -4 -3 -4 -4 -2 -3 -1 -2 -1 -1 -1 0 -0 0 1 2 2 2 1 3 3 3 4 3 -0 -1 -0 -0 -0 -0 -0 -1 -1 -0 1 1 1 1 1 0 0
-6 -4 -1 -0 -0 -1 -0 -0 -0 -1 -2 -4 -5 -7 -5 -4 -3 -2 -5 -4 -1 -1 -0 -1 -0 0 1 2 2 2 3 3 1 3 3 2 0 -1 -1 -2 -2 -2 -1 -1 1 1 -0 -1 0 -0 -0 0 0 0
-7 -6 -1 -1 0 -1 -0 -2 -0 -1 -4 -5 -6 -9 -5 -3 -3 -5 -4 -2 -1 -1 -1 -1 -0 0 1 1 2 3 2 2 2 2 1 -0 -1 -1 -2 -2 -2 -2 -1 0 0 -0 -3 -2 -0 -0 -0 -3 -4 -3
-10 -10 -7 -0 -0 0 -1 -2 -0 -1 -4 -5 -8 -9 -9 -5 -3 -2 -2 -2 -2 -1 -1 -1 -1 -0 1 1 1 1 2 2 2 1 0 -0 -1 -2 -2 -2 -2 -2 -0 -0 -2 -7 -1 -5 -9 -10 -10 -9 -8 -7
-16 -8 -6 -1 0 -1 1 -0 -1 -2 -4 -4 -6 -7 -6 -6 -6 -3 -3 -3 -2 -2 -2 -1 -1 1 1 1 2 1 2 1 2 0 -0 -1 -2 -2 -2 -2 -2 -3 -2 -2 -1 -2 -5 -13 -13 -13 -14 -14 -12 -10
-4 -7 -7 -1 0 0 -0 -0 -2 -2 -3 -4 -5 -7 -7 -5 -5 -3 -2 -3 -3 -3 -2 -2 -1 1 -2 0 0 -1 1 1 0 -1 -2 -2 -2 -2 -3 -2 -1 -5 -10 -9 -6 -10 -16 -18 -20 -20 -21 -21 -18 -14
-1 -2 -1 -1 0 -0 -1 -2 -2 -3 -4 -4 -5 -5 -6 -10 -7 -6 -5 -4 -4 -4 -4 -3 -3 -3 -2 -1 -0 0 -1 -1 -1 -1 -2 -2 -2 -3 -4 -4 -1 -2 -0 -1 -1 -3 -14 -21 -22 -22 -22 -20 -20 -18
-3 -1 -1 -1 -0 -1 -2 -2 -2 -3 -4 -6 -6 -6 -5 -5 -6 -6 -5 -4 -4 -3 -3 -4 -3 -3 -3 -3 -1 -0 -2 -3 -3 -3 -2 -2 -2 -3 -5 -8 -9 -9 -10 -9 -1 -9 -14 -18 -22 -23 -22 -20 -19 -19
-2 -1 -1 -1 -1 -1 -2 -3 -3 -3 -5 -6 -7 -6 -6 -5 -6 -6 -5 -5 -5 -5 -4 -4 -4 -4 -4 -2 -3 -4 -4 -5 -6 -6 -7 -5 -2 -1 -0 -3 -5 -5 -4 -3 -7 -10 -10 -16 -22 -23 -23 -22 -20 -20
-0 -1 -1 -0 -1 -2 -2 -4 -4 -5 -7 -8 -8 -8 -8 -7 -6 -6 -6 -5 -6 -6 -6 -5 -6 -7 -6 -6 -6 -6 -7 -8 -8 -7 -6 -6 -5 -3 -4 -1 -0 -1 -2 -4 -5 -7 -7 -13 -21 -23 -25 -25 -24 -23
-1 -1 -1 -2 -2 -4 -4 -5 -7 -9 -10 -8 -8 -9 -8 -7 -7 -7 -7 -7 -7 -7 -7 -10 -12 -10 -10 -9 -10 -13 -16 -17 -18 -18 -15 -9 -7 -6 -6 -5 -3 -2 -1 -1 -2 -5 -6 -14 -22 -25 -25 -23 -22 -22
-2 -2 -2 -3 -3 -5 -6 -6 -7 -8 -9 -8 -9 -9 -9 -8 -8 -8 -10 -8 -9 -11 -12 -11 -10 -10 -13 -16 -17 -16 -13 -12 -11 -10 -9 -9 -8 -8 -7 -7 -6 -4 -4 -4 -4 -4 -5 -15 -23 -24 -22 -21 -20 -20
-2 -2 -3 -3 -4 -7 -7 -7 -7 -7 -8 -9 -11 -10 -10 -8 -9 -10 -11 -10 -11 -12 -12 -14 -16 -16 -16 -17 -18 -17 -17 -18 -18 -18 -15 -11 -7 -8 -8 -8 -7 -5 -5 -5 -5 -8 -13 -18 -23 -24 -21 -20 -19 -18
-3 -4 -4 -6 -6 -8 -11 -11 -10 -9 -10 -11 -8 -11 -12 -11 -12 -14 -11 -11 -12 -13 -12 -18 -18 -17 -15 -16 -18 -19 -20 -21 -19 -16 -17 -18 -18 -17 -14 -10 -9 -7 -6 -6 -6 -9 -15 -20 -24 -23 -21 -19 -19 -18
-5 -5 -5 -7 -8 -8 -8 -7 -9 -10 -11 -12 -10 -11 -11 -12 -12 -10 -11 -11 -12 -12 -14 -18 -14 -15 -17 -16 -16 -17 -18 -19 -19 -19 -20 -17 -17 -18 -18 -17 -13 -11 -7 -6 -7 -11 -14 -19 -24 -23 -21 -20 -20 -20
-6 -7 -6 -6 -7 -7 -9 -9 -9 -11 -12 -12 -13 -12 -12 -11 -11 -12 -12 -12 -12 -13 -18 -14 -15 -14 -14 -16 -17 -19 -18 -18 -18 -17 -17 -16 -18 -18 -17 -16 -17 -17 -13 -11 -11 -13 -16 -21 -23 -22 -21 -20 -20 -20
-7 -7 -7 -8 -8 -8 -11 -12 -14 -12 -12 -11 -11 -11 -11 -11 -11 -12 -12 -12 -16 -17 -14 -14 -14 -15 -16 -17 -19 -20 -20 -19 -18 -17 -16 -16 -16 -15 -16 -18 -18 -15 -15 -17 -15 -14 -14 -15 -17 -18 -18 -18 -18 -18
-8 -7 -8 -10 -9 -9 -10 -11 -11 -10 -10 -11 -10 -10 -11 -12 -13 -14 -14 -14 -14 -14 -14 -15 -16 -17 -18 -18 -19 -19 -20 -19 -17 -16 -17 -17 -17 -18 -17 -15 -16 -17 -17 -15 -14 -16 -15 -14 -13 -14 -14 -16 -17 -17
-8 -9 -10 -10 -10 -9 -10 -9 -9 -9 -10 -11 -11 -11 -12 -13 -16 -16 -16 -16 -16 -16 -17 -17 -18 -18 -19 -19 -19 -20 -20 -18 -17 -15 -14 -14 -15 -15 -15 -15 -15 -15 -14 -13 -13 -13 -13 -14 -13 -14 -15 -16 -16 -16
-8 -9 -10 -10 -10 -11 -10 -11 -11 -11 -11 -12 -12 -12 -12 -13 -14 -14 -15 -15 -15 -15 -15 -15 -15 -15 -16 -17 -17 -16 -16 -16 -14 -13 -12 -12 -12 -13 -13 -13 -13 -12 -12 -12 -12 -13 -13 -13 -14 -13 -14 -15 -16 -16
-8 -9 -10 -11 -10 -10 -11 -11 -11 -11 -12 -12 -12 -12 -12 -12 -12 -13 -14 -14 -14 -14 -15 -15 -14 -15 -15 -14 -14 -14 -14 -13 -13 -12 -12 -12 -12 -12 -12 -12 -12 -12 -11 -12 -12 -12 -13 -14 -14 -15 -15 -15 -15 -14
-10 -10 -9 -10 -10 -10 -10 -11 -11 -11 -11 -11 -11 -11 -11 -11 -12 -12 -14 -15 -15 -15 -14 -14 -14 -14 -14 -13 -13 -13 -12 -12 -12 -13 -12 -12 -12 -12 -12 -12 -12 -12 -12 -13 -13 -12 -12 -11 -12 -14 -15 -14 -13 -12

GFSWCAN_850_dewp_063.txt.gz
Dewpoint
4 2 3 3 3 2 -0 -0 -3 -4 -5 -4 -4 -5 -4 -3 -4 -3 -2 -3 -3 -3 -3 -3 -5 -3 -5 -5 -4 -3 -0 2 3 2 3 2 1 0 1 0 1 2 3 4 3 4 2 -3 1 2 0 2 1 1
3 3 4 3 3 1 -0 -1 -4 -4 -5 -4 -4 -4 -4 -3 -4 -3 -3 -3 -3 -3 -3 -3 -5 -6 -5 -4 -4 -5 -2 -1 -0 3 1 1 1 -1 -0 1 -2 1 -1 1 1 0 -4 -3 0 1 1 2 2 2
4 3 4 4 3 1 0 -0 -3 -4 -4 -3 -3 -3 -3 -4 -4 -3 -4 -4 -3 -4 -3 -5 -5 -6 -6 -5 -5 -5 -3 -1 -1 -2 -1 3 4 -1 0 0 -1 -2 -3 -1 -1 -2 -3 -3 -3 -1 0 2 2 1
4 4 4 4 3 1 1 -1 -3 -3 -3 -3 -3 -3 -3 -4 -4 -4 -6 -6 -3 -3 -4 -7 -7 -4 -3 -4 -5 -5 -4 -3 -4 -5 -4 -0 3 3 2 0 -0 -2 -2 -1 -1 -2 -2 -2 -1 -2 -2 1 2 2
4 4 4 4 3 1 1 -1 -3 -3 -3 -3 -2 -3 -4 -3 -4 -5 -7 -5 -5 -4 -4 -5 -5 -5 -3 -2 -4 -5 -4 -4 -4 -5 -2 -1 -1 2 2 2 2 -0 -1 -0 0 -2 -2 -3 -2 -2 -1 1 2 2
5 5 5 4 3 2 1 -1 -2 -2 -2 -2 -2 -3 -4 -4 -4 -6 -4 -4 -3 -3 -3 -6 -6 -3 -2 -3 -4 -4 -4 -4 -4 -4 -4 -4 -4 0 1 1 0 -0 -0 -0 -1 -2 -1 -1 -1 -1 -1 0 3 2
4 5 4 3 2 2 1 -1 -2 -2 -2 -2 -2 -3 -4 -4 -5 -6 -5 -4 -3 -4 -3 -5 -6 -5 -3 -3 -3 -4 -4 -3 -3 -3 -3 -3 -3 -1 -1 -1 -4 -3 -2 -0 1 -0 0 -0 1 1 0 2 2 2
5 5 4 2 2 2 1 -1 -2 -2 -2 -2 -3 -4 -5 -5 -4 -4 -5 -4 -4 -4 -3 -4 -6 -5 -1 -2 -3 -3 -3 -3 -3 -4 -4 -3 -3 -3 -2 -5 -9 -9 -5 -4 -1 2 2 1 1 2 2 2 2 1
2 3 2 2 2 1 1 -1 -2 -2 -2 -2 -3 -4 -4 -4 -4 -4 -4 -3 -3 -3 -4 -4 -4 -5 -2 -0 -1 -3 -3 -2 -4 -3 -3 -3 -2 -2 -4 -5 -1 1 -1 -3 1 1 2 1 1 1 1 1 1 1
3 3 3 2 0 1 -0 -2 -1 -1 -1 -2 -3 -5 -3 -4 -4 -4 -3 -3 -3 -4 -4 -4 -4 -3 -2 -0 0 -2 -3 -1 -1 -2 -3 -1 -1 -2 -1 0 1 0 1 2 3 2 1 1 1 1 1 1 0 -0
4 2 1 2 -0 0 -1 -0 -1 -1 -1 -3 -5 -5 -4 -5 -5 -4 -3 -3 -3 -4 -3 -3 -3 -2 -1 0 1 0 1 0 2 1 1 2 1 1 2 1 1 1 0 1 1 2 2 1 0 0 0 -0 0 1
3 3 2 1 -1 -2 -1 -1 -1 -1 -2 -4 -4 -5 -5 -5 -5 -6 -7 -3 -3 -3 -1 -1 -1 -1 -1 -0 -0 1 1 1 1 1 2 2 1 0 -1 -1 -2 -1 0 0 -0 0 1 2 0 1 1 1 1 1
3 -1 -0 -0 -2 -1 -1 -1 -1 -1 -2 -4 -5 -7 -5 -4 -5 -9 -7 -6 -3 -1 -1 -2 -1 -1 -0 0 1 2 2 2 2 2 2 1 -1 -1 -1 -2 -2 -1 -0 -0 -0 0 0 0 -0 -0 -0 -0 -0 -2
-2 -2 -1 -2 -1 -1 -1 -1 -1 -1 -2 -5 -9 -9 -10 -7 -7 -7 -7 -4 -3 -3 -3 -2 -2 -1 -0 0 1 2 1 2 2 1 -0 -0 -1 -2 -2 -2 -2 -2 -1 -1 -1 -1 -1 -1 -2 -3 -5 -7 -10 -11
-2 -2 -2 -1 -0 -1 -1 -1 -1 -2 -3 -5 -8 -10 -8 -8 -5 -5 -3 -3 -3 -3 -3 -3 -3 -2 -1 -0 0 1 2 0 0 0 0 -0 -2 -2 -2 -2 -2 -1 -1 -1 -2 -2 -1 -2 -5 -10 -11 -14 -17 -15
-2 -1 -0 0 0 -1 -0 -1 -2 -2 -3 -4 -6 -10 -8 -7 -6 -4 -3 -3 -4 -3 -3 -4 -2 -1 -2 0 1 1 1 -1 0 0 -0 -0 -0 -2 -2 -2 -2 -2 -1 -1 -1 -2 -1 -3 -9 -18 -19 -21 -21 -17
-2 1 0 0 0 -0 -1 -2 -2 -3 -2 -3 -5 -6 -8 -8 -9 -8 -7 -6 -4 -3 -7 -5 -3 -3 -4 -2 -2 -2 0 0 -0 -0 -0 -0 -1 -2 -2 -3 -3 -2 -1 -6 -8 -1 -1 -2 -2 -13 -21 -22 -21 -19
-2 0 -0 0 -0 -0 -0 -1 -2 -2 -2 -3 -4 -6 -6 -7 -8 -7 -6 -4 -3 -4 -5 -6 -4 -4 -3 -3 -3 -3 -0 -0 -1 -2 -4 -5 -5 -3 -2 -3 -4 -3 -1 -2 -1 -1 -1 -3 -11 -16 -21 -23 -22 -20
-9 -9 -2 -1 -1 -0 -1 -1 -2 -2 -3 -4 -4 -5 -5 -6 -7 -8 -9 -7 -5 -5 -5 -4 -4 -4 -4 -4 -4 -3 -2 -1 -3 -4 -5 -7 -8 -8 -7 -2 -2 -5 -5 -4 -4 -4 -2 -2 -6 -5 -13 -21 -23 -21
-7 -5 -2 0 -1 -0 -1 -2 -2 -3 -5 -5 -5 -6 -5 -6 -6 -6 -6 -6 -4 -4 -5 -5 -5 -5 -5 -7 -6 -4 -3 -4 -5 -7 -9 -14 -15 -11 -6 -3 -2 -1 -3 -5 -7 -8 -7 -3 -5 -9 -10 -16 -21 -23
-3 -0 -0 -0 -0 -0 -1 -3 -4 -4 -4 -5 -6 -6 -6 -6 -6 -5 -5 -5 -5 -5 -5 -6 -6 -8 -8 -8 -7 -6 -6 -7 -8 -10 -12 -13 -13 -14 -16 -12 -5 -3 -3 -2 -2 -2 -2 -2 -1 -3 -6 -13 -21 -25
-1 -1 -0 -1 -1 -1 -2 -3 -4 -5 -7 -8 -8 -7 -8 -9 -8 -7 -6 -6 -6 -7 -7 -7 -8 -8 -8 -9 -10 -10 -10 -10 -11 -14 -14 -13 -13 -10 -7 -9 -13 -9 -7 -6 -6 -5 -4 -3 -2 -2 -5 -9 -19 -25
-1 -1 -1 -1 -2 -3 -6 -5 -5 -7 -10 -9 -9 -10 -10 -9 -8 -8 -8 -8 -8 -9 -10 -10 -9 -9 -9 -9 -10 -10 -12 -15 -15 -16 -17 -17 -18 -18 -17 -14 -10 -9 -9 -9 -7 -6 -6 -5 -4 -4 -4 -6 -16 -24
-4 -2 -2 -2 -2 -7 -7 -7 -7 -8 -8 -10 -13 -12 -14 -10 -10 -10 -11 -10 -10 -11 -12 -12 -13 -12 -11 -10 -11 -14 -15 -16 -18 -21 -21 -22 -21 -20 -21 -19 -17 -16 -15 -12 -11 -9 -6 -5 -5 -5 -5 -8 -17 -24
-2 -3 -3 -6 -7 -9 -11 -12 -11 -10 -10 -12 -13 -13 -15 -11 -15 -15 -12 -11 -12 -13 -14 -14 -13 -13 -13 -12 -14 -17 -16 -20 -20 -19 -20 -20 -20 -21 -21 -21 -22 -20 -17 -16 -15 -10 -8 -6 -6 -6 -9 -13 -17 -23
-3 -4 -4 -6 -9 -9 -10 -10 -10 -10 -12 -13 -12 -12 -11 -16 -12 -11 -12 -12 -14 -15 -14 -14 -14 -14 -13 -13 -16 -16 -17 -18 -17 -17 -17 -17 -19 -20 -20 -21 -22 -23 -19 -18 -17 -16 -13 -8 -7 -7 -9 -13 -16 -22
-6 -7 -6 -6 -7 -8 -10 -9 -9 -11 -12 -11 -14 -15 -13 -10 -11 -12 -12 -13 -13 -13 -14 -14 -13 -14 -14 -15 -16 -16 -16 -16 -16 -16 -16 -16 -17 -18 -18 -19 -20 -21 -21 -19 -17 -16 -17 -16 -15 -12 -12 -13 -16 -21
-6 -7 -8 -7 -7 -8 -10 -11 -11 -11 -11 -11 -12 -12 -11 -12 -12 -13 -13 -14 -15 -16 -16 -17 -18 -18 -16 -15 -16 -16 -15 -15 -14 -15 -15 -15 -16 -17 -18 -19 -19 -19 -19 -19 -19 -18 -16 -16 -17 -15 -15 -14 -15 -16
-7 -7 -7 -10 -8 -8 -9 -10 -10 -9 -10 -11 -12 -13 -12 -12 -13 -13 -14 -14 -15 -16 -17 -18 -17 -17 -17 -17 -16 -15 -14 -14 -14 -14 -14 -14 -15 -16 -17 -17 -18 -19 -18 -16 -16 -16 -16 -15 -15 -16 -15 -14 -14 -13
-8 -7 -8 -9 -10 -9 -8 -8 -9 -9 -10 -11 -11 -11 -11 -12 -14 -16 -18 -19 -20 -20 -18 -16 -15 -14 -14 -14 -14 -15 -15 -14 -14 -14 -13 -14 -14 -14 -14 -16 -17 -15 -13 -12 -12 -13 -13 -13 -14 -14 -15 -15 -14 -13
-8 -8 -10 -9 -9 -9 -9 -9 -9 -9 -9 -10 -10 -10 -12 -13 -16 -18 -20 -21 -19 -16 -15 -15 -15 -14 -14 -14 -14 -14 -14 -14 -14 -14 -14 -14 -14 -13 -13 -13 -13 -13 -12 -12 -12 -12 -12 -13 -13 -12 -12 -12 -12 -12
-8 -8 -9 -11 -10 -11 -11 -11 -11 -12 -12 -12 -13 -13 -13 -13 -13 -16 -16 -17 -16 -14 -14 -14 -14 -14 -14 -14 -14 -14 -13 -11 -12 -13 -13 -13 -13 -13 -13 -13 -12 -12 -12 -12 -12 -12 -12 -12 -12 -12 -11 -11 -11 -12
-9 -9 -9 -8 -8 -9 -11 -12 -12 -12 -12 -11 -12 -12 -12 -12 -12 -14 -14 -14 -14 -13 -12 -12 -13 -13 -13 -12 -9 -8 -8 -7 -8 -10 -11 -12 -12 -12 -12 -12 -12 -12 -12 -12 -12 -12 -12 -12 -12 -12 -12 -12 -13 -12

GFSWCAN_850_dewp_066.txt.gz
Dewpoint
9 8 5 3 3 1 2 1 -1 -4 -5 -5 -6 -6 -5 -5 -5 -4 -5 -5 -4 -4 -3 -3 -4 -3 -3 -5 -5 -5 -1 1 3 2 3 2 1 0 0 -0 1 2 3 3 3 4 2 -4 -0 2 -1 1 2 1
8 6 3 3 2 2 2 -1 -2 -4 -5 -5 -5 -5 -4 -5 -5 -5 -4 -4 -4 -3 -4 -4 -5 -6 -6 -4 -4 -4 -2 -1 -1 2 1 0 1 -1 -1 1 -2 1 -1 1 1 0 -4 -4 -2 -1 1 1 1 2
8 5 4 3 2 2 0 -1 -3 -4 -4 -4 -4 -5 -4 -4 -4 -5 -7 -7 -5 -4 -5 -6 -6 -6 -5 -5 -4 -4 -3 -1 -1 -3 -2 2 3 -1 0 -0 -1 -2 -3 -1 -1 -3 -3 -3 -3 -3 -3 -1 1 2
6 4 3 3 3 2 -1 -2 -3 -4 -4 -3 -4 -4 -4 -4 -5 -7 -8 -7 -5 -6 -6 -7 -6 -4 -2 -3 -5 -5 -3 -3 -4 -5 -4 -1 3 2 2 0 0 -2 -2 -2 -1 -2 -3 -3 -3 -3 -2 -1 0 2
7 2 3 3 3 1 -0 -2 -3 -4 -3 -3 -3 -4 -4 -4 -5 -7 -6 -6 -6 -4 -5 -6 -5 -3 -2 -3 -4 -5 -4 -4 -4 -5 -3 -2 -2 0 -0 1 2 -0 -1 -0 -0 -2 -2 -2 -2 -1 -2 -2 -1 2
5 3 4 4 3 1 -0 -1 -3 -3 -3 -2 -3 -4 -4 -5 -5 -6 -6 -5 -6 -5 -5 -7 -5 -4 -2 -4 -4 -4 -4 -3 -4 -5 -4 -5 -5 -1 -0 -0 -2 -0 -0 -1 -0 1 1 -0 -2 -2 -1 -0 -0 2
5 4 3 4 3 1 -1 -2 -3 -2 -2 -2 -3 -4 -5 -5 -6 -6 -6 -5 -5 -5 -5 -6 -6 -6 -2 -3 -4 -4 -4 -4 -4 -3 -3 -4 -4 -1 -1 -0 -5 -6 -7 -7 -7 -7 0 1 1 1 1 1 2 2
5 4 4 4 3 0 -0 -1 -2 -2 -2 -2 -3 -4 -5 -5 -5 -5 -5 -4 -4 -4 -4 -5 -6 -4 -1 -1 -2 -3 -3 -3 -3 -4 -4 -3 -4 -3 -2 -4 -7 -6 -0 1 -4 -4 -4 1 2 1 1 2 2 2
5 5 4 4 2 1 -0 -2 -2 -1 -2 -2 -3 -5 -5 -5 -5 -5 -4 -3 -4 -4 -4 -5 -4 -5 -3 -1 -1 -2 -3 -3 -3 -3 -3 -4 -3 -2 -5 -7 -4 -2 -0 -0 1 1 -1 1 -0 1 2 1 1 1
5 4 4 3 1 1 -1 -2 -1 -2 -2 -2 -4 -5 -4 -4 -5 -3 -3 -4 -4 -4 -4 -4 -4 -3 -2 -1 0 -1 -3 -1 -2 -3 -3 -2 -2 -3 -3 -2 1 1 1 0 2 2 1 0 1 1 1 1 1 0
2 4 3 1 1 1 -1 -1 -2 -1 -1 -2 -5 -4 -4 -5 -4 -4 -3 -4 -3 -4 -3 -3 -3 -2 -2 -0 0 0 0 -0 1 1 -0 1 1 0 1 0 -0 -1 0 1 0 1 1 2 1 1 0 0 0 0
3 2 2 2 1 -0 -1 -1 -1 -2 -2 -4 -5 -5 -5 -5 -5 -8 -8 -3 -4 -4 -2 -2 -1 -1 -1 -1 -0 0 1 1 1 -0 2 2 0 -1 -1 -1 -2 -2 -0 -0 -0 0 0 1 1 1 0 -0 0 0
1 -1 2 1 0 -0 -2 -1 -2 -2 -3 -4 -5 -7 -5 -4 -7 -9 -7 -6 -3 -2 -1 -3 -2 -2 -1 0 -0 1 2 2 1 2 1 1 -1 -2 -2 -2 -2 -2 -1 -0 -0 -1 -1 -1 -1 -1 -1 -2 -2 -2
-1 2 1 1 1 -1 -0 -1 -2 -2 -3 -6 -9 -8 -10 -7 -8 -8 -7 -7 -3 -3 -3 -3 -3 -2 -1 -0 -0 1 1 2 2 1 0 -0 -1 -1 -2 -2 -2 -2 -1 -1 -1 -1 -1 -1 -2 -2 -2 -2 -4 -11
2 2 2 1 -0 -1 -1 -2 -2 -2 -3 -6 -9 -9 -9 -8 -6 -6 -3 -3 -3 -3 -3 -3 -4 -3 -2 -1 -1 0 1 1 -0 -1 1 -0 -1 -1 -0 -2 -2 -2 -1 -1 -1 -2 -2 -2 -2 -4 -12 -14 -18 -19
2 2 0 -0 0 -0 -1 -1 -3 -3 -3 -4 -6 -10 -8 -7 -7 -4 -3 -3 -3 -4 -3 -4 -4 -2 -2 -0 0 -1 -0 -2 -1 -0 -0 -0 -0 -0 -0 -1 -3 -3 -2 -1 -2 -2 -2 -2 -3 -6 -9 -21 -22 -20
-0 -0 0 -0 -0 -1 -1 -3 -3 -3 -2 -3 -5 -6 -9 -9 -9 -6 -5 -5 -4 -4 -8 -6 -7 -5 -4 -4 -3 -4 -1 -4 -0 -0 -1 -1 -2 -2 -2 -2 -3 -3 -2 -2 -6 -3 -2 -2 -2 -4 -13 -21 -22 -21
-1 -0 -1 -0 -0 -1 -2 -2 -2 -3 -3 -3 -4 -5 -6 -9 -8 -7 -6 -5 -4 -3 -5 -8 -5 -4 -3 -3 -5 -5 -1 -0 -0 0 -2 -5 -5 -6 -7 -7 -3 -3 -4 -2 -4 -3 -1 -2 -2 -2 -3 -3 -9 -21
-2 -1 0 -0 -1 -1 -1 -1 -2 -2 -3 -4 -4 -4 -6 -6 -7 -8 -8 -4 -4 -5 -5 -4 -5 -5 -5 -5 -5 -5 -3 -3 -4 -3 -4 -5 -7 -10 -13 -10 -8 -3 -3 -5 -4 -3 -3 -3 -2 -3 -6 -9 -12 -19
-2 0 0 -0 -1 -1 -2 -2 -2 -3 -4 -4 -5 -5 -5 -5 -5 -6 -7 -6 -3 -5 -5 -5 -6 -6 -6 -9 -8 -8 -7 -6 -4 -5 -7 -10 -13 -12 -13 -14 -9 -4 -2 -2 -3 -4 -5 -6 -8 -6 -3 -7 -8 -14
-0 -0 0 -0 -1 -1 -2 -3 -4 -4 -4 -5 -6 -6 -6 -6 -6 -6 -6 -5 -4 -4 -5 -6 -7 -9 -8 -8 -7 -7 -7 -6 -6 -7 -7 -10 -13 -12 -9 -8 -14 -15 -8 -6 -5 -4 -3 -4 -3 -2 -2 -2 -4 -10
-0 -0 -0 -0 -1 -2 -2 -3 -4 -5 -6 -7 -7 -6 -8 -9 -8 -6 -6 -5 -5 -7 -7 -7 -8 -8 -8 -8 -9 -8 -8 -7 -8 -9 -9 -12 -15 -17 -16 -11 -9 -9 -10 -10 -8 -8 -7 -7 -6 -5 -3 -2 -2 -5
-1 -1 -1 -1 -2 -3 -6 -5 -5 -7 -10 -9 -9 -10 -10 -10 -9 -8 -8 -7 -7 -9 -10 -9 -9 -10 -10 -10 -10 -9 -9 -10 -11 -12 -14 -16 -19 -19 -20 -19 -19 -18 -17 -16 -14 -12 -10 -9 -7 -5 -5 -4 -4 -5
-1 -4 -4 -2 -2 -8 -7 -7 -7 -8 -8 -10 -12 -11 -13 -10 -10 -10 -11 -10 -10 -10 -10 -10 -10 -11 -11 -12 -13 -14 -12 -10 -11 -15 -16 -19 -21 -20 -20 -20 -20 -21 -21 -21 -17 -16 -13 -10 -8 -6 -5 -5 -5 -5
-5 -3 -3 -6 -7 -8 -10 -10 -11 -10 -10 -10 -12 -13 -15 -12 -15 -15 -12 -11 -11 -11 -13 -14 -15 -14 -14 -14 -14 -14 -13 -11 -13 -16 -20 -20 -19 -18 -19 -20 -18 -19 -20 -21 -20 -18 -17 -15 -11 -8 -6 -6 -6 -9
-6 -4 -4 -6 -8 -8 -9 -10 -10 -9 -10 -13 -13 -13 -11 -16 -13 -11 -12 -11 -11 -12 -13 -14 -14 -14 -14 -13 -14 -14 -12 -15 -16 -20 -20 -18 -17 -17 -16 -16 -15 -14 -17 -19 -21 -21 -20 -18 -17 -16 -12 -9 -8 -10
-5 -7 -6 -6 -7 -8 -10 -9 -10 -11 -12 -11 -13 -14 -13 -11 -12 -11 -11 -13 -13 -15 -16 -16 -17 -18 -19 -18 -14 -12 -13 -16 -18 -18 -17 -16 -15 -15 -15 -15 -16 -16 -17 -18 -19 -20 -20 -20 -19 -17 -17 -16 -14 -11
-5 -6 -8 -7 -8 -8 -10 -11 -10 -10 -10 -10 -12 -12 -11 -10 -10 -13 -13 -14 -15 -15 -17 -18 -17 -16 -16 -17 -17 -15 -14 -15 -17 -16 -15 -14 -14 -14 -15 -15 -16 -16 -16 -16 -16 -18 -19 -19 -18 -17 -17 -16 -16 -15
-6 -7 -7 -10 -9 -8 -9 -10 -10 -9 -10 -10 -11 -11 -12 -12 -12 -12 -13 -14 -14 -18 -19 -20 -20 -18 -16 -15 -15 -15 -16 -15 -15 -15 -14 -14 -14 -14 -15 -15 -15 -15 -15 -15 -15 -16 -17 -16 -14 -14 -15 -15 -15 -15
-8 -7 -8 -9 -9 -9 -8 -8 -9 -9 -10 -10 -11 -11 -11 -11 -11 -11 -13 -16 -19 -19 -19 -18 -17 -17 -16 -16 -16 -16 -15 -14 -14 -14 -14 -14 -14 -14 -14 -14 -15 -14 -14 -14 -14 -14 -13 -12 -12 -12 -12 -13 -14 -14
-8 -8 -10 -8 -9 -8 -8 -8 -8 -9 -9 -9 -9 -10 -10 -10 -14 -17 -18 -19 -18 -16 -15 -14 -14 -14 -14 -14 -14 -14 -14 -14 -15 -14 -14 -14 -13 -13 -13 -13 -13 -13 -13 -14 -13 -12 -11 -12 -12 -12 -12 -12 -13 -12
-8 -8 -10 -12 -11 -11 -11 -11 -11 -11 -11 -12 -12 -12 -12 -13 -13 -15 -16 -14 -13 -13 -13 -12 -11 -11 -11 -12 -12 -13 -13 -13 -9 -8 -8 -8 -8 -9 -10 -11 -12 -12 -12 -13 -13 -13 -12 -12 -12 -12 -12 -12 -12 -11
-9 -8 -8 -8 -8 -9 -10 -11 -12 -12 -12 -12 -12 -12 -12 -12 -12 -14 -13 -13 -12 -11 -10 -10 -11 -11 -11 -10 -11 -12 -10 -10 -10 -11 -13 -13 -13 -14 -14 -14 -15 -14 -14 -13 -12 -12 -12 -12 -12 -12 -12 -12 -12 -12

GFSWCAN_850_dewp_069.txt.gz
Dewpoint
8 8 9 9 7 5 2 -1 0 -2 -6 -7 -7 -7 -8 -7 -7 -8 -8 -9 -7 -4 -3 -4 -5 -5 -5 -5 -5 -5 -2 -0 2 3 3 2 1 0 -0 -1 1 2 3 3 3 4 3 -3 0 1 -2 -0 1 2
8 8 9 8 6 4 0 -0 0 -3 -6 -7 -7 -7 -7 -7 -7 -8 -8 -9 -7 -6 -4 -5 -7 -6 -5 -5 -5 -4 -2 -1 -1 1 2 -0 1 -1 -1 1 -2 1 -1 1 1 1 -3 -4 -3 -2 -1 -1 -0 1
8 8 8 7 5 3 0 1 -1 -4 -6 -6 -7 -7 -7 -7 -7 -9 -7 -8 -8 -6 -6 -6 -7 -4 -5 -5 -5 -5 -3 -1 -1 -2 -1 1 2 -1 0 -1 -1 -2 -3 -1 -1 -3 -3 -3 -3 -3 -2 -2 -2 -0
8 7 7 5 4 2 1 1 -3 -5 -6 -6 -6 -7 -6 -7 -9 -8 -7 -7 -8 -9 -8 -7 -4 -3 -2 -3 -5 -5 -3 -3 -4 -5 -4 -1 2 1 2 1 0 -1 -2 -2 -2 -3 -3 -3 -2 -2 -2 -2 -1 0
8 7 6 2 3 3 2 -1 -4 -5 -5 -5 -5 -7 -5 -6 -8 -8 -7 -6 -6 -6 -6 -6 -4 -3 -3 -5 -4 -5 -4 -4 -4 -6 -4 -4 -2 -0 -0 0 1 -1 -1 -0 0 -2 -0 -0 -0 -0 -1 -2 -1 0
8 7 4 2 3 3 1 -2 -4 -4 -4 -4 -4 -6 -5 -6 -7 -7 -7 -7 -6 -6 -7 -7 -4 -3 -3 -5 -4 -5 -4 -4 -4 -4 -5 -5 -4 -1 -1 -1 -3 -1 -0 -1 -1 -2 -4 -3 -1 1 -0 -1 -1 0
7 6 4 4 3 2 -0 -3 -3 -4 -4 -3 -4 -5 -5 -6 -6 -6 -6 -7 -6 -6 -6 -7 -6 -5 -1 -2 -4 -4 -4 -4 -4 -4 -3 -4 -4 -2 -1 -1 -5 -5 -6 -2 -1 -1 -3 -6 -4 2 1 2 2 2
7 5 5 4 4 2 -1 -3 -3 -3 -2 -2 -4 -4 -6 -6 -6 -5 -5 -5 -5 -6 -6 -8 -8 -3 -2 -1 -2 -3 -3 -3 -3 -4 -4 -4 -4 -3 -2 -4 -7 -7 -2 -0 -0 -0 1 1 -2 0 1 1 2 2
7 5 4 4 3 1 -2 -3 -2 -2 -2 -3 -4 -5 -6 -6 -5 -4 -4 -4 -5 -5 -5 -5 -5 -5 -3 -1 -1 -2 -3 -3 -3 -3 -4 -4 -3 -3 -6 -8 -5 -1 -0 0 1 0 1 -1 -3 0 0 1 2 2
6 3 3 3 3 1 -2 -2 -2 -2 -3 -4 -5 -6 -4 -5 -4 -3 -4 -4 -4 -4 -4 -5 -4 -3 -3 -1 0 -1 -3 -2 -4 -3 -3 -2 -3 -4 -3 -2 -0 -0 -0 0 0 0 1 2 2 2 2 1 1 1
4 4 4 3 2 -1 -2 -2 -2 -2 -3 -4 -5 -3 -5 -4 -4 -4 -3 -4 -4 -5 -3 -3 -3 -3 -2 -1 -0 -0 0 -1 0 -1 -1 -0 -1 -1 -0 -1 -1 -2 -1 -0 -0 -0 0 1 1 1 1 0 0 0
5 4 3 2 0 -1 -2 -2 -2 -3 -3 -5 -5 -5 -5 -5 -4 -6 -6 -4 -5 -4 -3 -3 -2 -3 -2 -1 -0 0 1 1 1 -1 0 1 -0 -2 -2 -2 -2 -2 -2 -1 -0 -0 -0 -0 -0 -0 -0 -1 -1 -1
4 4 3 2 -0 -1 -2 -2 -2 -4 -5 -5 -6 -5 -5 -4 -6 -6 -5 -4 -3 -2 -1 -2 -3 -3 -1 -1 -0 1 1 1 1 1 1 -2 -1 -1 -1 -2 -2 -2 -2 -1 -1 -1 -1 -1 -1 -1 -2 -2 -2 -2
3 2 0 -1 -0 -1 -1 -1 -2 -4 -4 -7 -8 -5 -6 -5 -6 -7 -8 -7 -4 -2 -3 -4 -4 -4 -1 -0 -0 1 0 1 2 1 -2 -0 -1 -1 -0 -1 -0 -1 -2 -1 -1 -2 -2 -2 -2 -2 -2 -3 -5 -3
2 -1 -1 1 -0 -1 -1 -2 -2 -2 -3 -7 -9 -5 -7 -8 -6 -7 -3 -3 -3 -4 -4 -4 -4 -4 -2 -1 -1 -0 1 1 -1 -2 0 -0 -0 -0 -0 -0 -1 -2 -2 -1 -1 -2 -2 -2 -2 -3 -12 -15 -8 -15
-0 1 1 0 -0 -1 -1 -2 -1 -3 -3 -5 -7 -7 -7 -7 -6 -4 -3 -3 -3 -4 -4 -5 -5 -3 -3 -1 -1 -2 -1 -3 -4 -0 -0 -0 -1 -1 -1 -2 -2 -3 -3 -2 -1 -3 -2 -2 -3 -4 -9 -17 -21 -20
1 1 0 -0 -0 -1 -1 -1 -3 -3 -3 -4 -5 -8 -9 -9 -6 -5 -3 -3 -4 -4 -8 -6 -5 -5 -5 -3 -2 -3 -1 -5 -1 -0 -1 -1 -2 -4 -5 -6 -7 -5 -3 -3 -2 -5 -2 -2 -2 -3 -4 -13 -19 -21
0 0 -0 -0 -1 -1 -2 -2 -3 -3 -3 -4 -4 -6 -8 -9 -9 -6 -5 -4 -4 -5 -5 -8 -6 -4 -4 -3 -5 -6 -3 -1 -1 -1 -2 -3 -3 -4 -5 -8 -11 -11 -8 -3 -4 -3 -4 -2 -2 -2 -3 -3 -2 -2
-0 -0 -0 -0 -2 -3 -2 -2 -2 -3 -4 -4 -4 -5 -6 -7 -8 -8 -6 -4 -4 -6 -6 -5 -7 -6 -6 -6 -6 -8 -7 -3 -3 -5 -5 -5 -5 -8 -12 -13 -14 -14 -8 -4 -3 -4 -4 -4 -4 -4 -4 -3 -4 -10
-0 -0 -0 -2 -1 -2 -1 -2 -2 -3 -4 -4 -5 -5 -5 -5 -6 -7 -6 -4 -4 -5 -5 -6 -6 -7 -7 -10 -9 -8 -8 -7 -5 -5 -7 -7 -8 -10 -13 -11 -9 -13 -14 -7 -3 -3 -4 -4 -4 -3 -3 -4 -3 -3
0 -0 -2 -1 -1 -2 -3 -3 -3 -4 -5 -5 -5 -5 -6 -6 -6 -5 -6 -5 -4 -4 -5 -7 -8 -8 -9 -8 -8 -8 -8 -7 -7 -6 -6 -7 -8 -11 -15 -10 -8 -9 -11 -13 -12 -9 -7 -6 -6 -4 -4 -4 -2 -2
-1 -1 -1 -1 -2 -2 -3 -4 -5 -5 -6 -6 -6 -6 -7 -7 -8 -6 -6 -5 -5 -6 -6 -7 -9 -9 -9 -9 -9 -8 -8 -8 -8 -7 -7 -8 -10 -12 -17 -17 -18 -17 -18 -16 -15 -14 -13 -10 -8 -7 -7 -6 -5 -3
-1 -0 -1 -1 -2 -4 -6 -5 -5 -7 -10 -9 -8 -10 -11 -10 -9 -8 -7 -6 -7 -9 -9 -9 -9 -9 -9 -9 -9 -10 -10 -10 -10 -9 -9 -10 -12 -16 -18 -20 -20 -21 -22 -20 -20 -17 -16 -14 -11 -10 -7 -5 -5 -5
-1 -1 -2 -2 -4 -8 -6 -7 -7 -8 -9 -11 -12 -11 -13 -11 -10 -10 -11 -10 -9 -10 -10 -10 -11 -12 -12 -13 -13 -13 -13 -11 -12 -11 -10 -11 -14 -19 -19 -19 -19 -19 -19 -19 -21 -21 -20 -18 -17 -15 -10 -7 -6 -5
-6 -3 -3 -9 -7 -9 -12 -11 -11 -11 -10 -12 -12 -13 -16 -12 -15 -13 -12 -11 -11 -11 -12 -13 -16 -17 -16 -15 -14 -13 -13 -13 -13 -13 -12 -12 -16 -19 -19 -19 -17 -16 -16 -16 -17 -18 -20 -21 -20 -20 -18 -16 -11 -7
-4 -4 -4 -8 -9 -10 -10 -11 -11 -11 -10 -11 -13 -14 -12 -16 -11 -11 -12 -11 -11 -13 -16 -17 -17 -18 -18 -18 -18 -15 -13 -13 -12 -12 -13 -14 -18 -20 -18 -17 -16 -15 -15 -15 -16 -17 -17 -18 -18 -19 -20 -18 -17 -16
-8 -8 -6 -6 -7 -8 -10 -9 -9 -10 -10 -10 -13 -14 -15 -12 -11 -11 -10 -12 -13 -15 -15 -17 -18 -18 -18 -18 -18 -18 -17 -13 -14 -15 -15 -17 -20 -18 -17 -16 -15 -14 -14 -14 -15 -15 -16 -17 -17 -17 -18 -19 -18 -17
-5 -6 -8 -7 -8 -9 -10 -10 -10 -9 -10 -10 -11 -13 -12 -11 -10 -10 -13 -14 -15 -14 -13 -16 -18 -19 -20 -20 -20 -19 -18 -17 -15 -14 -16 -18 -18 -17 -15 -15 -14 -14 -14 -14 -15 -16 -16 -16 -16 -16 -16 -17 -18 -16
-6 -7 -7 -9 -8 -8 -9 -10 -10 -9 -9 -9 -11 -12 -12 -10 -11 -12 -12 -13 -13 -12 -14 -18 -19 -20 -20 -19 -18 -18 -17 -16 -14 -14 -14 -15 -16 -16 -15 -14 -14 -14 -15 -15 -15 -15 -14 -14 -15 -14 -14 -14 -13 -13
-7 -7 -8 -8 -8 -7 -8 -8 -9 -9 -9 -10 -10 -11 -11 -11 -10 -10 -10 -11 -14 -17 -17 -18 -17 -15 -15 -14 -14 -14 -14 -14 -15 -15 -14 -14 -14 -14 -14 -14 -14 -14 -13 -14 -14 -14 -13 -13 -13 -13 -13 -12 -12 -12
-8 -7 -9 -8 -9 -8 -8 -8 -8 -8 -9 -9 -10 -10 -10 -10 -9 -14 -17 -17 -16 -15 -14 -13 -13 -13 -12 -12 -12 -12 -12 -12 -12 -13 -14 -14 -14 -13 -10 -9 -9 -9 -9 -9 -10 -12 -13 -13 -12 -11 -11 -11 -12 -12
-8 -8 -10 -12 -11 -10 -11 -10 -10 -10 -10 -9 -9 -9 -10 -12 -13 -15 -15 -15 -13 -12 -12 -11 -11 -11 -11 -11 -12 -12 -12 -11 -11 -11 -11 -9 -9 -10 -12 -13 -13 -13 -13 -13 -13 -13 -12 -12 -12 -12 -12 -12 -12 -12
-9 -9 -9 -8 -9 -9 -10 -11 -12 -12 -12 -12 -12 -12 -12 -13 -13 -14 -13 -13 -12 -11 -11 -10 -10 -11 -13 -13 -13 -13 -11 -10 -11 -12 -12 -13 -13 -14 -14 -14 -14 -13 -14 -14 -15 -15 -15 -14 -13 -12 -12 -11 -11 -12